Regional Weather Roundup
Issued by NWS Mobile, AL

Current Version | Previous Version | Text Only | Print | Product List | Glossary On
Versions: 1 2 3 4 5 6 7 8 9 10 11 12 13 14 15 16 17 18 19 20 21 22 23 24 25 26 27 28 29 30 31 32 33 34 35 36 37 38 39 40 41 42 43 44 45 46 47 48 49 50
000
ASUS44 KMOB 030716
RWRMOB
REGIONAL WEATHER ROUNDUP
NATIONAL WEATHER SERVICE MOBILE AL
200 AM CDT THU SEP 03 2015

ALZ061>064-030800-
COASTAL ALABAMA


CITY           SKY/WX    TMP DP  RH WIND       PRES   REMARKS
MOBILE REG APT MOCLDY    77  74  90 W3        30.00F
BROOKLEY FIELD MOCLDY    77  75  93 CALM      30.00F
GULF SHORES    PTSUNNY   76  76  99 CALM      29.98F

$$

ALZ051>060-030800-
INTERIOR SOUTHWEST AND SOUTH CENTRAL ALABAMA


CITY           SKY/WX    TMP DP  RH WIND       PRES   REMARKS
ANDALUSIA/OPP  MOCLDY    81  71  71 CALM      29.97F
EVERGREEN      CLOUDY    75  72  90 CALM      29.98F
FLORALA        PTSUNNY   75  70  84 CALM      29.99F
GREENVILLE     FAIR      75  71  87 CALM      29.98F

$$

FLZ001>006-030800-
WESTERN FLORIDA PANHANDLE


CITY           SKY/WX    TMP DP  RH WIND       PRES   REMARKS
CRESTVIEW      MOCLDY    79  73  82 SW3       29.98F
DESTIN         MOCLDY    82  77  84 VRB3      29.97F
DUKE FIELD     FAIR      79  73  83 W5        29.97F
MARY ESTHER    PTCLDY    80  74  84 NW7       29.96F
MILTON           N/A     79  74  84 CALM      29.98F
PENSACOLA      MOCLDY    80  74  81 W7        29.98F
NAS PENSACOLA  NOT AVBL
VALPARAISO     MOCLDY    78  74  87 NE1       29.97F

$$

...MARINE OBSERVATIONS...

STATION/POSITION TIME  SKY/WX   TEMP    WIND        PRES    VSBY
                                AIR SEA DIR/SP/G
                 (UTC)          (F)     (DEG/KT/KT) (MB)    (MI)
PASCAGOULA       0600            83     200/  2/  3 1015.5F
PETIT BOIS ISL   0600            83     200/  3/  4 1016.1F
E DAUPHIN ISLAND 0700            83     260/  2/  2 1015.1F
MIDDLE BAY LIGHT 0600            81     320/  7     1014.9F
USCG MOBILE BAY  0600            81 86  280/  3/  3 1014.7F
STATE DOCKS      0600            82 84              1015.3F
MEAHER PARK      0700            83     260/  4     1014.9F
FORT MORGAN      0600            83     240/  5/  7 1015.1F
12 S ORANGE BCH  0650            84 86  250/  6/  8 1014.6F
WVE H/P(F/S)=  1/ 5

PENSACOLA BAY    0600            81 86  330/  4/  6 1015.7F
64 S DAUPHIN ISL 0650            83 85  190/  4/  6 1015.3F
WVE H/P(F/S)=  1/ 5

115 SE PENSACOLA 0650            84 87  240/  6/  8 1015.2F
WVE H/P(F/S)=  1

MID GULF/42001   0700            84 86  120/ 16/ 19 1014.5R
EAST GULF/42003  0650            84 86  100/  4/  6 1015.3F
WVE H/P(F/S)=  2/ 6


$$

...NEARBY LOCATIONS

CITY           SKY/WX    TMP DP  RH WIND       PRES   REMARKS
GULFPORT       CLEAR     75  72  90 CALM      29.97F
BILOXI         PTCLDY    78  75  89 N3        29.97F
PASCAGOULA     PTCLDY    73  73 100 CALM      29.98F
HATTIESBURG    MOCLDY    77  70  79 CALM      30.00S
LAUREL         MOCLDY    73  52  46 CALM      30.01F
MERIDIAN       PTCLDY    73  72  96 CALM      29.99F FOG
MERIDIAN NAS   PTCLDY    74  72  93 W5        29.99F FOG
MONTGOMERY     CLOUDY    78  72  81 CALM      29.97F
MAXWELL AFB    CLOUDY    77  74  91 N2        29.96F
TROY           MOCLDY    76  73  91 CALM      29.98F
FORT RUCKER    PTCLDY    75  71  87 CALM      29.95F
DALEVILLE      MOCLDY    76  71  86 CALM      29.96F
DOTHAN         PTCLDY    77  71  82 SW3       30.00F

$$

...OTHER SURROUNDING LOCATIONS...

CITY           SKY/WX    TMP DP  RH WIND       PRES   REMARKS
BIRMINGHAM     CLOUDY    76  74  93 CALM      30.02S
TUSCALOOSA     CLOUDY    77  75  93 CALM      29.98F FOG
COLUMBUS GA    MOCLDY    77  72  84 CALM      29.97F
PANAMA CITY    NOT AVBL
TALLAHASSEE    PTCLDY    78  74  87 W5        29.96F
BATON ROUGE    PTCLDY    75  71  87 NE5       29.97F
NEW ORLEANS    CLOUDY    78  71  79 E3        29.96F
SLIDELL        PTCLDY    73  72  96 CALM      29.97F
JACKSON        CLEAR     72  68  87 CALM      29.99F
MCCOMB         PTCLDY    69  69 100 CALM      30.00F FOG

$$

...SURROUNDING MARINE OBSERVATIONS...

STATION/POSITION TIME  SKY/WX   TEMP    WIND        PRES    VSBY
                                AIR SEA DIR/SP/G
                 (UTC)          (F)     (DEG/KT/KT) (MB)    (MI)
WAVELAND         0600            78 85   CALM  /  1 1015.9F
PASCAGOULA RGN A 0600            80     230/  3/  4 1015.1F
PASCAGOULA PORT  0600               86                N/A
GRAND ISLE       0600            81 85  130/  2/  5 1015.2F
SOUTHWEST PASS   0700                                 N/A
PILOT STATION E  0600            82 85  150/  5/  8 1015.3F
SHELL BEACH      0600            81 85   60/  5/  6 1015.0F
PANAMA CITY      0600            84 87  270/  9/ 11 1014.8F
APALACHICOLA     0600            81 87  270/  3/  4 1015.2F
TYNDALL TOWER C  0700            84     270/ 10/ 11 1014.8F
S APLCHCLA/42036 0650            84 86  250/  8/ 10 1014.7F
WVE H/P(F/S)=  1/ 7


$$




USA.gov is the U.S. government's official web portal to all federal, state and local government web resources and services.